This is the latest recevied weather packets stored in our database for station/object SQ2WB-13. If no packets are shown the sender has not sent any weather packets the latest 10 day(s).
| Time | Temp. | Humidity | Pressure | Rain* | Wind** | Luminosity | Snow |
|---|---|---|---|---|---|---|---|
| 1787663702 | 22.78° C | 54% | 1011.5 hPa | 0 mm | - | - | - |
| 1787662802 | 23.89° C | 47% | 1011.5 hPa | 0 mm | - | - | - |
| 1787661901 | 22.78° C | 48% | 1011.5 hPa | 0 mm | - | - | - |
| 1787661001 | 22.78° C | 53% | 1011.5 hPa | 0 mm | - | - | - |
| 1787660101 | 21.67° C | 52% | 1011.5 hPa | 0 mm | - | - | - |
| 1787659201 | 23.89° C | 54% | 1011.5 hPa | 0 mm | - | - | - |
| 1787658301 | 23.89° C | 51% | 1011.5 hPa | 0 mm | - | - | - |
| 1787657401 | 23.89° C | 48% | 1011.8 hPa | 0 mm | - | - | - |
| 1787656502 | 22.78° C | 51% | 1011.8 hPa | 0 mm | - | - | - |
| 1787655602 | 23.89° C | 52% | 1011.8 hPa | 0 mm | - | - | - |
| 1787654701 | 22.78° C | 56% | 1011.8 hPa | 0 mm | - | - | - |
| 1787653802 | 22.78° C | 55% | 1012.1 hPa | 0 mm | - | - | - |
| 1787652901 | 22.78° C | 57% | 1011.8 hPa | 0 mm | - | - | - |
| 1787652001 | 22.78° C | 56% | 1012.1 hPa | 0 mm | - | - | - |
| 1787651101 | 21.67° C | 60% | 1012.1 hPa | 0 mm | - | - | - |
| 1787650202 | 21.67° C | 58% | 1012.5 hPa | 0 mm | - | - | - |
| 1787649302 | 20.56° C | 61% | 1012.5 hPa | 0 mm | - | - | - |
| 1787648401 | 20.56° C | 61% | 1012.1 hPa | 0 mm | - | - | - |
| 1787647502 | 20.56° C | 63% | 1012.1 hPa | 0 mm | - | - | - |
| 1787646601 | 20.56° C | 64% | 1012.1 hPa | 0 mm | - | - | - |
| 1787645702 | 20° C | 67% | 1012.1 hPa | 0 mm | - | - | - |
| 1787644802 | 20° C | 71% | 1012.1 hPa | 0 mm | - | - | - |
| 1787643902 | 20° C | 70% | 1011.8 hPa | 1.27 mm | - | - | - |
| 1787643001 | 18.89° C | 75% | 1011.8 hPa | 0 mm | - | - | - |
| 1787642101 | 18.89° C | 75% | 1011.8 hPa | 0 mm | - | - | - |
* Rain latest hour (hover to see other rain measurements)
** Current wind speed in m/s (hover to see current wind gust speed)